Location: L�Ave Maria
(50.7161°N, 1.5911°E)
Time: 00:28:16
(UTC+00:00)

CZ-2C R/B - Pass Details

Date: 10 July 2020
Orbit: 784 x 871 km, 98.3° (Epoch: 03 August)

Event Time Altitude Azimuth Distance (km) Brightness Sun altitude
Rises 20:53:11 0° 9° (N) 3,396 6.4 -6.5°
Reaches altitude 10° 20:55:40 10° 3° (N) 2,444 5.8 -6.7°
Maximum altitude 21:00:42 41° 295° (WNW) 1,171 4.1 -7.3°
Drops below altitude 10° 21:05:35 10° 227° (SW) 2,378 5.0 -7.8°
Sets 21:07:59 0° 220° (SW) 3,293 5.7 -8.0°
